"Pseudo-MPEC" for OEe0433

Created 2026 Mar 20 20:35:22 UT using Find_Orb

Click here for an explanation of pseudo-MPECs

 
 Astrometry: 
     OEe0433* C2026 03 10.59228010 14 52.935+20 01 48.73   ~3BEK 21.75rWNEOCPO18
     OEe0433  C2026 03 10.66107610 14 33.937+20 00 46.02   ~3BEK 22.39gWNEOCPO18
     OEe0433  C2026 03 10.66600710 14 32.583+20 00 41.20   ~3BEK 22.19gWNEOCPO18

Station data:
(O18) WFST, Lenghu  (N38.607601 E93.895220).  Observers K. Yan, Z. Q. Li, J.
   Z. Zhu, N. Jiang, Z. Y. Liu. Measurers B. Li, H. B. Zhao, Z. J. Xu, G. T.
   Zhaori. 2.5-m f/2.48 reflector + CCD.

Orbital elements:  OEe0433
   Perihelion 2026 Jan 10.189846 +/- 119 TT =  4:33:22.7 (JD 2461050.689846)
Epoch 2026 Mar 11.0 TT = JDT 2461110.5   Earth MOID: 0.1335   Ma: 0.0020
M  11.250338100 +/- 70              (J2000 ecliptic)             AutoNEOCP
n   0.188100805 +/- 0.287           Peri.   22.765039 +/- 70
a   3.016770541 +/- 3.07            Node   346.410618 +/- 58
e   0.96355843 +/- 0.234            Incl.   37.302028 +/- 38
P   5.23978                H 21.70  G  0.15   U 11.9  SR
q 0.109935854 +/- 0.531    Q 5.923605229 +/- 18
From 3 observations 2026 Mar. 10 (1.8 hr); mean residual 0".09
Residuals in arcseconds: 
260310 O18  .00   .01-    260310 O18  .04-  .15+    260310 O18  .04+  .14-    

Ephemerides (geocentric):
Date (UTC) HH   RA             Dec           delta  r     elong  mag " sig PA
---- --------  ------------   ------------  ------ ------ -----  --- --------
2026 03 20 21  09 44 16.671   +17 47 06.07  .73471 1.6400 142.3 23.2  28d 105
2026 03 20 22  09 44 12.088   +17 46 38.61  .73567 1.6407 142.2 23.2  28d 105
2026 03 20 23  09 44 07.521   +17 46 11.20  .73663 1.6413 142.2 23.2  28d 105
2026 03 21 00  09 44 02.971   +17 45 43.81  .73760 1.6420 142.1 23.2  28d 105
2026 03 21 01  09 43 58.437   +17 45 16.47  .73856 1.6426 142.1 23.2  28d 105
2026 03 21 02  09 43 53.921   +17 44 49.16  .73952 1.6432 142.0 23.2  28d 105
2026 03 21 03  09 43 49.421   +17 44 21.89  .74048 1.6439 142.0 23.2  28d 105
2026 03 21 04  09 43 44.937   +17 43 54.65  .74145 1.6445 141.9 23.2  28d 105
2026 03 21 05  09 43 40.470   +17 43 27.45  .74241 1.6452 141.9 23.2  28d 105
2026 03 21 06  09 43 36.019   +17 43 00.28  .74338 1.6458 141.8 23.2  28d 105
2026 03 21 07  09 43 31.585   +17 42 33.15  .74434 1.6465 141.8 23.2  28d 105
2026 03 21 08  09 43 27.167   +17 42 06.06  .74531 1.6471 141.7 23.2  28d 105
2026 03 21 09  09 43 22.765   +17 41 39.00  .74627 1.6477 141.6 23.2  28d 105
2026 03 21 10  09 43 18.380   +17 41 11.97  .74724 1.6484 141.6 23.2  28d 105
2026 03 21 11  09 43 14.010   +17 40 44.99  .74820 1.6490 141.5 23.2  28d 105
2026 03 21 12  09 43 09.657   +17 40 18.03  .74917 1.6497 141.5 23.2  28d 105
2026 03 21 13  09 43 05.320   +17 39 51.11  .75014 1.6503 141.4 23.2  28d 105
2026 03 21 14  09 43 00.999   +17 39 24.23  .75110 1.6510 141.4 23.2  28d 105
2026 03 21 15  09 42 56.693   +17 38 57.38  .75207 1.6516 141.3 23.2  28d 105
2026 03 21 16  09 42 52.404   +17 38 30.57  .75304 1.6522 141.3 23.2  28d 105
2026 03 21 17  09 42 48.130   +17 38 03.79  .75401 1.6529 141.2 23.2  28d 105
2026 03 21 18  09 42 43.873   +17 37 37.04  .75498 1.6535 141.2 23.3  28d 105
2026 03 21 19  09 42 39.631   +17 37 10.33  .75594 1.6542 141.1 23.3  28d 105
2026 03 21 20  09 42 35.404   +17 36 43.66  .75691 1.6548 141.1 23.3  28d 105
2026 03 21 21  09 42 31.194   +17 36 17.02  .75788 1.6554 141.0 23.3  28d 105
2026 03 21 22  09 42 26.999   +17 35 50.41  .75885 1.6561 140.9 23.3  28d 105
2026 03 21 23  09 42 22.819   +17 35 23.84  .75982 1.6567 140.9 23.3  29d 105
2026 03 22 00  09 42 18.655   +17 34 57.30  .76079 1.6574 140.8 23.3  29d 105
2026 03 22 01  09 42 14.506   +17 34 30.80  .76176 1.6580 140.8 23.3  29d 105
2026 03 22 02  09 42 10.373   +17 34 04.32  .76273 1.6586 140.7 23.3  29d 105
2026 03 22 03  09 42 06.255   +17 33 37.89  .76370 1.6593 140.7 23.3  29d 105
2026 03 22 04  09 42 02.152   +17 33 11.49  .76467 1.6599 140.6 23.3  29d 105
2026 03 22 05  09 41 58.065   +17 32 45.12  .76565 1.6606 140.6 23.3  29d 105
2026 03 22 06  09 41 53.993   +17 32 18.78  .76662 1.6612 140.5 23.3  29d 105
2026 03 22 07  09 41 49.936   +17 31 52.48  .76759 1.6618 140.5 23.3  29d 105
2026 03 22 08  09 41 45.894   +17 31 26.21  .76856 1.6625 140.4 23.3  29d 105
2026 03 22 09  09 41 41.867   +17 30 59.98  .76954 1.6631 140.4 23.3  29d 105
2026 03 22 10  09 41 37.855   +17 30 33.78  .77051 1.6637 140.3 23.3  29d 105
2026 03 22 11  09 41 33.858   +17 30 07.61  .77148 1.6644 140.3 23.3  29d 105
2026 03 22 12  09 41 29.876   +17 29 41.47  .77246 1.6650 140.2 23.3  29d 105
2026 03 22 13  09 41 25.909   +17 29 15.37  .77343 1.6657 140.1 23.3  29d 105
2026 03 22 14  09 41 21.956   +17 28 49.30  .77440 1.6663 140.1 23.3  29d 105
2026 03 22 15  09 41 18.019   +17 28 23.27  .77538 1.6669 140.0 23.3  29d 105
2026 03 22 16  09 41 14.096   +17 27 57.26  .77635 1.6676 140.0 23.3  29d 105
2026 03 22 17  09 41 10.188   +17 27 31.29  .77733 1.6682 139.9 23.3  29d 105
2026 03 22 18  09 41 06.294   +17 27 05.36  .77830 1.6688 139.9 23.3  29d 105
2026 03 22 19  09 41 02.415   +17 26 39.45  .77928 1.6695 139.8 23.4  29d 105
2026 03 22 20  09 40 58.550   +17 26 13.58  .78026 1.6701 139.8 23.4  29d 105